Home > Weather > Kumanovo > Past weeks

Flag for Macedonia, Republic of Weather for the Past 2 Weeks in Kumanovo, Macedonia, Republic of

Now
45 °F

Clear.


Feels Like: 45 °F
Forecast: 28 / 48 °F
Wind: 1 mph from South

Location: Skopje-Petrovec

Current Time: Feb 7, 2016 at 5:24:26 PM

Latest Report: Feb 7, 2016 at 5:00 PM


Visibility: 10 mi

Pressure: 30.24 "Hg

Humidity: 46%

Dew point: 25 °F

Location of KumanovoLocation

Historic Weather in Kumanovo — Graph

°F

Kumanovo Temperature Yesterday

Maximum temperature yesterday: 48 °F (at 2:00 PM)
Minimum temperature yesterday: 27 °F (at 11:30 PM)
Average temperature yesterday: 39 °F

High & Low Weather Summary for the Past Weeks

 TemperatureHumidityPressure
High66 °F (Feb 2, 2:30 PM)100% (Jan 27, 3:00 AM)30.57 "Hg (Jan 27, 3:00 AM)
Low9 °F (Jan 24, 5:00 AM)29% (Feb 6, 2:00 PM)29.86 "Hg (Feb 4, 5:00 AM)
Average37 °F78%30.32 "Hg
* Reported Jan 23 4:00 PM — Feb 7 4:00 PM, Kumanovo, Weather by CustomWeather, © 2016

Note: Actual official high and low records may vary slightly from our data, if they occured in-between our weather recording intervals... More about our weather records

Advertising

Kumanovo Weather History for the Previous 24 Hours

 ConditionsComfort  
Time TempWeatherWind HumidityBarometerVisibility
4:00 PM
Sun, Feb 7
50 °FSunny.5 mph37%30.24 "Hg10 mi
3:30 PM52 °FPassing clouds.6 mph32%30.24 "HgN/A
3:00 PM52 °FPassing clouds.6 mph32%30.24 "HgN/A
2:30 PM52 °FPassing clouds.5 mph32%30.24 "HgN/A
2:00 PM50 °FPassing clouds.5 mph35%30.24 "HgN/A
1:30 PM50 °FPassing clouds.6 mph35%30.27 "HgN/A
1:00 PM48 °FPassing clouds.6 mph37%30.27 "HgN/A
12:30 PM48 °FPassing clouds.6 mph37%30.30 "HgN/A
12:00 PM46 °FSunny.3 mph43%30.30 "Hg10 mi
11:00 AM39 °FSunny.1 mph56%30.36 "Hg10 mi
10:30 AM37 °FSunny.2 mph60%30.36 "Hg10 mi
10:00 AM36 °FSunny.2 mph65%30.39 "Hg10 mi
9:30 AM34 °FSunny.No wind70%30.39 "Hg10 mi
9:00 AM32 °FSunny.No wind75%30.39 "Hg10 mi
8:30 AM28 °FSunny.No wind80%30.42 "Hg10 mi
8:00 AM28 °FSunny.No wind74%30.42 "Hg10 mi
7:30 AM23 °FSunny.2 mph86%30.42 "Hg10 mi
7:00 AM21 °FSunny.1 mph86%30.39 "Hg10 mi
6:30 AM21 °FClear.No wind86%30.39 "Hg10 mi
6:00 AM21 °FClear.2 mph86%30.39 "Hg10 mi
4:00 AM23 °FClear.2 mph86%30.39 "Hg10 mi
3:30 AM23 °FClear.2 mph86%30.39 "Hg10 mi
3:00 AM23 °FClear.2 mph86%30.39 "Hg10 mi
2:30 AM25 °FClear.No wind86%30.39 "Hg10 mi
2:00 AM23 °FClear.No wind86%30.39 "Hg10 mi
1:30 AM25 °FClear.No wind86%30.39 "Hg10 mi
1:00 AM25 °FClear.No wind86%30.39 "Hg10 mi
12:00 AM27 °FClear.No wind80%30.42 "Hg10 mi
11:30 PM
Sat, Feb 6
27 °FClear.2 mph80%30.42 "Hg10 mi
10:00 PM28 °FClear.No wind74%30.42 "Hg10 mi
9:30 PM28 °FClear.No wind74%30.39 "Hg10 mi
9:00 PM30 °FClear.No wind69%30.39 "Hg10 mi
8:30 PM32 °FClear.3 mph64%30.39 "Hg10 mi
8:00 PM32 °FClear.3 mph64%30.39 "Hg10 mi
7:30 PM32 °FClear.1 mph60%30.39 "Hg10 mi
7:00 PM32 °FClear.1 mph64%30.39 "Hg10 mi
6:30 PM36 °FClear.1 mph56%30.39 "Hg10 mi
6:00 PM37 °FClear.3 mph52%30.39 "Hg10 mi
5:30 PM41 °FClear.3 mph39%30.39 "Hg10 mi
5:00 PM43 °FClear.No wind36%30.39 "Hg10 mi
Weather by CustomWeather, © 2016

See weather overviewHow to use our weather pages